TimeEDT,TemperatureF,Dew PointF,Humidity,Sea Level PressureIn,VisibilityMPH,Wind Direction,Wind SpeedMPH,Gust SpeedMPH,PrecipitationIn,Events,Conditions,WindDirDegrees,DateUTC
12:15 AM,59.4,58.1,96,30.03,10.0,Calm,Calm,-,N/A,,Clear,0,2013-05-16 04:15:00
12:55 AM,64.6,56.1,74,30.03,10.0,WSW,4.6,-,N/A,,Clear,240,2013-05-16 04:55:00
1:15 AM,57.4,55.9,95,30.04,10.0,Calm,Calm,-,N/A,,Clear,0,2013-05-16 05:15:00
1:35 AM,66.0,55.2,68,30.03,10.0,WNW,4.6,-,N/A,,Clear,290,2013-05-16 05:35:00
1:55 AM,65.7,54.1,66,30.03,10.0,NW,3.5,-,N/A,,Clear,310,2013-05-16 05:55:00
2:15 AM,61.5,55.0,79,30.02,10.0,WSW,3.5,-,N/A,,Clear,250,2013-05-16 06:15:00
2:35 AM,70.2,52.0,52,30.02,10.0,West,4.6,-,N/A,,Clear,260,2013-05-16 06:35:00
2:55 AM,71.2,51.1,49,30.02,10.0,West,6.9,-,N/A,,Clear,270,2013-05-16 06:55:00
3:15 AM,69.4,51.8,53,30.02,10.0,West,3.5,-,N/A,,Clear,280,2013-05-16 07:15:00
3:35 AM,70.0,50.9,51,30.02,10.0,West,4.6,-,N/A,,Clear,260,2013-05-16 07:35:00
3:55 AM,68.5,50.9,53,30.02,10.0,West,3.5,-,N/A,,Clear,260,2013-05-16 07:55:00
4:15 AM,63.1,52.0,67,30.02,10.0,West,3.5,-,N/A,,Clear,260,2013-05-16 08:15:00
4:35 AM,57.9,53.6,86,30.02,10.0,West,3.5,-,N/A,,Clear,260,2013-05-16 08:35:00
4:55 AM,68.2,49.1,50,30.02,10.0,WSW,3.5,-,N/A,,Clear,250,2013-05-16 08:55:00
5:15 AM,61.9,50.4,66,30.02,10.0,West,3.5,-,N/A,,Clear,260,2013-05-16 09:15:00
5:35 AM,65.7,47.7,52,30.03,10.0,West,4.6,-,N/A,,Clear,270,2013-05-16 09:35:00
5:55 AM,67.3,47.1,48,30.03,10.0,WSW,5.8,-,N/A,,Clear,250,2013-05-16 09:55:00
6:15 AM,68.0,46.8,47,30.03,10.0,WSW,5.8,-,N/A,,Clear,250,2013-05-16 10:15:00
6:35 AM,58.5,50.7,75,30.04,10.0,SW,4.6,-,N/A,,Clear,230,2013-05-16 10:35:00
6:55 AM,64.2,49.1,58,30.04,10.0,WSW,6.9,-,N/A,,Clear,240,2013-05-16 10:55:00
7:15 AM,68.4,48.7,49,30.05,10.0,SW,5.8,-,N/A,,Clear,230,2013-05-16 11:15:00
7:35 AM,60.4,52.3,75,30.05,10.0,SW,5.8,-,N/A,,Clear,230,2013-05-16 11:35:00
7:55 AM,69.3,51.3,53,30.06,10.0,SW,5.8,-,N/A,,Clear,230,2013-05-16 11:55:00
8:15 AM,71.2,52.0,51,30.06,10.0,SW,4.6,-,N/A,,Clear,220,2013-05-16 12:15:00
8:35 AM,73.2,52.2,48,30.06,10.0,SW,4.6,-,N/A,,Clear,230,2013-05-16 12:35:00
8:55 AM,72.9,54.5,52,30.07,10.0,Calm,Calm,-,N/A,,Clear,0,2013-05-16 12:55:00
9:15 AM,72.7,55.4,55,30.07,10.0,SSE,3.5,-,N/A,,Clear,150,2013-05-16 13:15:00
9:35 AM,73.6,55.9,54,30.08,10.0,Calm,Calm,-,N/A,,Clear,0,2013-05-16 13:35:00
9:55 AM,75.2,54.7,49,30.08,10.0,SW,5.8,-,N/A,,Clear,230,2013-05-16 13:55:00
10:15 AM,75.4,53.4,46,30.09,10.0,WSW,5.8,-,N/A,,Clear,250,2013-05-16 14:15:00
10:35 AM,77.0,51.4,41,30.08,10.0,West,10.4,-,N/A,,Clear,270,2013-05-16 14:35:00
10:55 AM,79.2,50.7,37,30.09,10.0,WSW,10.4,-,N/A,,Clear,240,2013-05-16 14:55:00
11:15 AM,79.7,49.6,35,30.08,10.0,West,11.5,16.1,N/A,,Clear,270,2013-05-16 15:15:00
11:35 AM,80.4,48.0,32,30.09,10.0,West,10.4,-,N/A,,Clear,270,2013-05-16 15:35:00
11:55 AM,79.9,48.6,33,30.09,10.0,West,6.9,-,N/A,,Clear,260,2013-05-16 15:55:00
12:15 PM,80.4,49.3,34,30.08,10.0,WSW,3.5,-,N/A,,Clear,250,2013-05-16 16:15:00
12:35 PM,80.4,48.4,32,30.07,10.0,WSW,4.6,-,N/A,,Clear,250,2013-05-16 16:35:00
12:55 PM,81.0,47.8,31,30.07,10.0,West,5.8,-,N/A,,Clear,280,2013-05-16 16:55:00
1:15 PM,81.1,48.0,31,30.07,10.0,West,5.8,-,N/A,,Clear,260,2013-05-16 17:15:00
1:35 PM,82.2,47.1,29,30.06,10.0,SW,6.9,-,N/A,,Clear,230,2013-05-16 17:35:00
1:55 PM,81.7,47.1,30,30.06,10.0,SW,5.8,-,N/A,,Clear,230,2013-05-16 17:55:00
2:15 PM,81.0,50.9,35,30.05,10.0,South,5.8,-,N/A,,Clear,180,2013-05-16 18:15:00
2:35 PM,79.9,54.5,41,30.06,10.0,South,5.8,-,N/A,,Clear,190,2013-05-16 18:35:00
3:15 PM,81.9,50.7,34,30.05,10.0,South,4.6,-,N/A,,Clear,190,2013-05-16 19:15:00
3:35 PM,82.9,48.9,31,30.05,10.0,South,5.8,-,N/A,,Clear,180,2013-05-16 19:35:00
3:55 PM,82.2,48.4,31,30.04,10.0,SSW,4.6,-,N/A,,Clear,210,2013-05-16 19:55:00
4:15 PM,80.6,52.7,38,30.04,10.0,SSW,4.6,-,N/A,,Clear,200,2013-05-16 20:15:00
4:35 PM,79.7,55.4,43,30.04,10.0,SSW,3.5,-,N/A,,Clear,210,2013-05-16 20:35:00
4:55 PM,79.5,53.2,40,30.03,10.0,SW,5.8,-,N/A,,Clear,230,2013-05-16 20:55:00
5:15 PM,78.4,55.6,45,30.03,10.0,SW,3.5,-,N/A,,Clear,220,2013-05-16 21:15:00
5:35 PM,77.0,55.8,48,30.03,10.0,SW,6.9,-,N/A,,Clear,220,2013-05-16 21:35:00
6:15 PM,76.1,56.8,51,30.03,10.0,SW,5.8,-,N/A,,Clear,220,2013-05-16 22:15:00
6:35 PM,76.1,57.9,53,30.03,10.0,SW,4.6,-,N/A,,Clear,220,2013-05-16 22:35:00
6:55 PM,77.7,58.3,51,30.03,10.0,SSW,3.5,-,N/A,,Clear,210,2013-05-16 22:55:00
7:15 PM,77.4,58.6,52,30.03,10.0,Calm,Calm,-,N/A,,Clear,0,2013-05-16 23:15:00
7:35 PM,76.1,60.8,59,30.03,10.0,Calm,Calm,-,N/A,,Clear,0,2013-05-16 23:35:00
7:55 PM,73.8,62.2,67,30.04,10.0,Calm,Calm,-,N/A,,Clear,0,2013-05-16 23:55:00
8:15 PM,71.6,64.6,78,30.05,10.0,Calm,Calm,-,N/A,,Clear,0,2013-05-17 00:15:00
8:35 PM,68.0,64.6,89,30.05,10.0,Calm,Calm,-,N/A,,Clear,0,2013-05-17 00:35:00
8:55 PM,70.9,61.7,73,30.06,10.0,Calm,Calm,-,N/A,,Clear,0,2013-05-17 00:55:00
9:15 PM,68.5,61.7,79,30.07,10.0,Calm,Calm,-,N/A,,Clear,0,2013-05-17 01:15:00
9:35 PM,64.4,61.7,91,30.07,10.0,Calm,Calm,-,N/A,,Clear,0,2013-05-17 01:35:00
9:55 PM,63.0,61.0,93,30.08,10.0,Calm,Calm,-,N/A,,Clear,0,2013-05-17 01:55:00
10:15 PM,62.1,60.6,95,30.09,10.0,Calm,Calm,-,N/A,,Clear,0,2013-05-17 02:15:00
10:35 PM,60.4,59.4,96,30.09,10.0,Calm,Calm,-,N/A,,Clear,0,2013-05-17 02:35:00
10:55 PM,60.3,59.2,96,30.09,10.0,Calm,Calm,-,N/A,,Clear,0,2013-05-17 02:55:00
11:15 PM,59.2,58.1,96,30.09,10.0,Calm,Calm,-,N/A,,Clear,0,2013-05-17 03:15:00
11:35 PM,59.4,59.0,99,30.09,10.0,Calm,Calm,-,N/A,,Clear,0,2013-05-17 03:35:00
11:55 PM,58.6,57.9,97,30.09,7.0,Calm,Calm,-,N/A,,Clear,0,2013-05-17 03:55:00